Location: *
(51.1248°S, 108.4023°W)
Time: 04:55:28
(UTC+00:00)

Cosmos 2074 Rocket - Pass Details

Date: 15 June 2021
Orbit: 966 x 987 km, 82.9° (Epoch: 31 July)

Event Time Altitude Azimuth Distance (km) Brightness Sun altitude
Rises 12:28:29 0° 190° (S) 3,710 6.9 -25.0°
Reaches altitude 10° 12:31:01 10° 188° (S) 2,759 6.2 -24.6°
Maximum altitude 12:37:22 78° 101° (ESE) 1,017 4.1 -23.6°
Drops below altitude 10° 12:43:41 10° 14° (NNE) 2,743 6.6 -22.6°
Sets 12:46:12 0° 12° (NNE) 3,686 7.3 -22.2°
